Stündliche Wetter Kyshyn

Heute, 26 Januar, Dienstag

Zeit Temperatur Niederschläge Wind Luftdruck Luftfeuchtigkeit
00:00 +2°C° 0.7 mm 2 m/S 726 mmHg 98%
01:00 +1°C° 0.7 mm 3 m/S 725 mmHg 98%
02:00 +1°C° 0.7 mm 3 m/S 725 mmHg 98%
03:00 -1°C° 0.8 mm 4 m/S 725 mmHg 97%
04:00 -1°C° 0.8 mm 5 m/S 725 mmHg 97%
05:00 -1°C° 0.8 mm 5 m/S 725 mmHg 97%
06:00 -3°C° 0.9 mm 6 m/S 725 mmHg 96%
07:00 -3°C° 0.9 mm 6 m/S 726 mmHg 95%
08:00 -3°C° 0.9 mm 7 m/S 726 mmHg 94%
09:00 -3°C° 0.8 mm 7 m/S 727 mmHg 94%
10:00 -4°C° 0.8 mm 8 m/S 727 mmHg 94%
11:00 -4°C° 0.8 mm 8 m/S 728 mmHg 94%
12:00 -4°C° 0.9 mm 9 m/S 729 mmHg 93%
13:00 -4°C° 0.9 mm 9 m/S 729 mmHg 93%
14:00 -4°C° 0.9 mm 10 m/S 730 mmHg 92%
15:00 -4°C° 0.3 mm 9 m/S 731 mmHg 91%
16:00 -4°C° 0.3 mm 9 m/S 731 mmHg 90%
17:00 -5°C° 0.3 mm 8 m/S 732 mmHg 89%
18:00 -5°C° 0.1 mm 8 m/S 733 mmHg 87%
19:00 -5°C° 0.1 mm 8 m/S 733 mmHg 86%
20:00 -5°C° 0.1 mm 8 m/S 734 mmHg 84%
21:00 -4°C° 0 mm 7 m/S 734 mmHg 84%
22:00 -4°C° 0 mm 7 m/S 735 mmHg 84%
23:00 -4°C° 0 mm 7 m/S 736 mmHg 85%

Morgen, 27 Januar, Mittwoch

Zeit Temperatur Niederschläge Wind Luftdruck Luftfeuchtigkeit
00:00 -4°C° 0 mm 6 m/S 736 mmHg 84%
01:00 -4°C° 0 mm 6 m/S 736 mmHg 84%
02:00 -4°C° 0 mm 5 m/S 737 mmHg 84%
03:00 -4°C° 0 mm 5 m/S 737 mmHg 85%
04:00 -4°C° 0 mm 5 m/S 737 mmHg 85%
05:00 -4°C° 0 mm 4 m/S 737 mmHg 86%
06:00 -4°C° 0 mm 4 m/S 737 mmHg 87%
07:00 -4°C° 0 mm 3 m/S 738 mmHg 88%
08:00 -4°C° 0 mm 3 m/S 738 mmHg 89%
09:00 -4°C° 0 mm 3 m/S 738 mmHg 88%
10:00 -2°C° 0 mm 3 m/S 738 mmHg 86%
11:00 -2°C° 0 mm 3 m/S 738 mmHg 85%
12:00 -2°C° 0 mm 3 m/S 738 mmHg 84%
13:00 -2°C° 0 mm 3 m/S 738 mmHg 83%
14:00 -1°C° 0 mm 2 m/S 738 mmHg 82%
15:00 -2°C° 0 mm 2 m/S 738 mmHg 85%
16:00 -2°C° 0 mm 2 m/S 738 mmHg 87%
17:00 -2°C° 0 mm 2 m/S 738 mmHg 89%
18:00 -2°C° 0 mm 2 m/S 738 mmHg 90%
19:00 -2°C° 0 mm 2 m/S 738 mmHg 91%
20:00 -2°C° 0 mm 2 m/S 738 mmHg 92%
21:00 -2°C° 0 mm 2 m/S 738 mmHg 92%
22:00 -2°C° 0 mm 2 m/S 737 mmHg 92%
23:00 -2°C° 0 mm 2 m/S 737 mmHg 92%

übermorgen, 28 Januar, Donnerstag

Zeit Temperatur Niederschläge Wind Luftdruck Luftfeuchtigkeit
00:00 -2°C° 0 mm 3 m/S 737 mmHg 93%
01:00 -4°C° 0 mm 3 m/S 737 mmHg 94%
02:00 -4°C° 0 mm 3 m/S 737 mmHg 94%
03:00 -4°C° 0 mm 3 m/S 736 mmHg 94%
04:00 -4°C° 0 mm 3 m/S 736 mmHg 95%
05:00 -4°C° 0 mm 3 m/S 736 mmHg 95%
06:00 -4°C° 0 mm 3 m/S 735 mmHg 95%
07:00 -4°C° 0 mm 3 m/S 735 mmHg 94%
08:00 -5°C° 0 mm 3 m/S 735 mmHg 94%
09:00 -4°C° 0 mm 3 m/S 735 mmHg 93%
10:00 -4°C° 0 mm 3 m/S 735 mmHg 92%
11:00 -3°C° 0 mm 4 m/S 734 mmHg 91%
12:00 -3°C° 0 mm 4 m/S 734 mmHg 90%
13:00 -3°C° 0 mm 4 m/S 734 mmHg 89%
14:00 -3°C° 0 mm 4 m/S 733 mmHg 89%
15:00 -3°C° 0.1 mm 4 m/S 733 mmHg 90%
16:00 -2°C° 0.1 mm 3 m/S 733 mmHg 92%
17:00 -4°C° 0.1 mm 3 m/S 732 mmHg 94%
18:00 -4°C° 0.3 mm 3 m/S 732 mmHg 93%
19:00 -4°C° 0.3 mm 3 m/S 732 mmHg 93%
20:00 -4°C° 0.3 mm 3 m/S 732 mmHg 93%
21:00 -5°C° 0.2 mm 3 m/S 731 mmHg 92%
22:00 -5°C° 0.2 mm 3 m/S 731 mmHg 91%
23:00 -5°C° 0.2 mm 3 m/S 731 mmHg 90%

29 Januar, Freitag

Zeit Temperatur Niederschläge Wind Luftdruck Luftfeuchtigkeit
00:00 -5°C° 0.1 mm 3 m/S 730 mmHg 91%
01:00 -5°C° 0.1 mm 3 m/S 730 mmHg 92%
02:00 -5°C° 0.1 mm 3 m/S 730 mmHg 93%
03:00 -6°C° 0 mm 3 m/S 730 mmHg 92%
04:00 -6°C° 0 mm 3 m/S 730 mmHg 91%
05:00 -7°C° 0 mm 4 m/S 729 mmHg 90%
06:00 -7°C° 0 mm 3 m/S 729 mmHg 91%
07:00 -7°C° 0 mm 3 m/S 729 mmHg 92%
08:00 -8°C° 0 mm 3 m/S 729 mmHg 94%
09:00 -7°C° 0 mm 3 m/S 729 mmHg 91%
10:00 -6°C° 0 mm 3 m/S 729 mmHg 88%
11:00 -7°C° 0 mm 4 m/S 729 mmHg 85%
12:00 -5°C° 0.1 mm 4 m/S 729 mmHg 87%
13:00 -5°C° 0.1 mm 4 m/S 728 mmHg 88%
14:00 -5°C° 0.1 mm 4 m/S 728 mmHg 90%
15:00 -5°C° 0.2 mm 4 m/S 728 mmHg 91%
16:00 -5°C° 0.2 mm 4 m/S 728 mmHg 92%
17:00 -5°C° 0.2 mm 4 m/S 728 mmHg 92%
18:00 -5°C° 0.1 mm 4 m/S 728 mmHg 92%
19:00 -5°C° 0.1 mm 4 m/S 728 mmHg 92%
20:00 -5°C° 0.1 mm 4 m/S 728 mmHg 92%
21:00 -5°C° 0.1 mm 4 m/S 728 mmHg 92%
22:00 -7°C° 0.1 mm 4 m/S 728 mmHg 92%
23:00 -7°C° 0.1 mm 4 m/S 729 mmHg 91%

30 Januar, Samstag

Zeit Temperatur Niederschläge Wind Luftdruck Luftfeuchtigkeit
00:00 -7°C° 0.1 mm 4 m/S 729 mmHg 91%
01:00 -7°C° 0.1 mm 4 m/S 729 mmHg 91%
02:00 -7°C° 0.1 mm 4 m/S 729 mmHg 91%
03:00 -7°C° 0 mm 4 m/S 729 mmHg 91%
04:00 -8°C° 0 mm 4 m/S 729 mmHg 90%
05:00 -8°C° 0 mm 4 m/S 729 mmHg 90%
06:00 -7°C° 0 mm 4 m/S 729 mmHg 90%
07:00 -7°C° 0 mm 4 m/S 729 mmHg 90%
08:00 -7°C° 0 mm 4 m/S 729 mmHg 90%
09:00 -7°C° 0 mm 4 m/S 730 mmHg 89%
10:00 -5°C° 0 mm 4 m/S 730 mmHg 87%
11:00 -6°C° 0 mm 5 m/S 730 mmHg 86%
12:00 -4°C° 0 mm 4 m/S 730 mmHg 86%
13:00 -4°C° 0 mm 4 m/S 730 mmHg 85%
14:00 -4°C° 0 mm 4 m/S 730 mmHg 85%
15:00 -4°C° 0.1 mm 4 m/S 731 mmHg 88%
16:00 -5°C° 0.1 mm 3 m/S 731 mmHg 90%
17:00 -5°C° 0.1 mm 3 m/S 731 mmHg 92%
18:00 -5°C° 0.1 mm 3 m/S 731 mmHg 92%
19:00 -6°C° 0.1 mm 3 m/S 732 mmHg 92%
20:00 -6°C° 0.1 mm 3 m/S 732 mmHg 93%
21:00 -6°C° 0 mm 3 m/S 732 mmHg 92%
22:00 -7°C° 0 mm 3 m/S 733 mmHg 92%
23:00 -8°C° 0 mm 3 m/S 733 mmHg 92%

31 Januar, Sonntag

Zeit Temperatur Niederschläge Wind Luftdruck Luftfeuchtigkeit
00:00 -8°C° 0 mm 3 m/S 733 mmHg 92%
01:00 -8°C° 0 mm 3 m/S 733 mmHg 93%
02:00 -8°C° 0 mm 3 m/S 733 mmHg 94%
03:00 -8°C° 0 mm 3 m/S 733 mmHg 94%
04:00 -8°C° 0 mm 3 m/S 733 mmHg 94%
05:00 -9°C° 0 mm 3 m/S 733 mmHg 94%
06:00 -8°C° 0 mm 3 m/S 734 mmHg 93%
07:00 -8°C° 0 mm 3 m/S 734 mmHg 93%
08:00 -8°C° 0 mm 3 m/S 734 mmHg 93%
09:00 -8°C° 0 mm 4 m/S 735 mmHg 90%
10:00 -8°C° 0 mm 5 m/S 735 mmHg 87%
11:00 -8°C° 0 mm 5 m/S 735 mmHg 84%
12:00 -8°C° 0 mm 5 m/S 735 mmHg 83%
13:00 -7°C° 0 mm 5 m/S 735 mmHg 83%
14:00 -7°C° 0 mm 5 m/S 735 mmHg 82%
15:00 -7°C° 0 mm 5 m/S 735 mmHg 83%
16:00 -7°C° 0 mm 4 m/S 735 mmHg 85%
17:00 -7°C° 0 mm 4 m/S 735 mmHg 86%
18:00 -8°C° 0 mm 4 m/S 735 mmHg 87%
19:00 -8°C° 0 mm 4 m/S 735 mmHg 88%
20:00 -8°C° 0 mm 4 m/S 735 mmHg 90%
21:00 -8°C° 0 mm 4 m/S 736 mmHg 90%
22:00 -8°C° 0 mm 4 m/S 736 mmHg 91%
23:00 -9°C° 0 mm 4 m/S 736 mmHg 91%
Mehr zeigen

Wir brauchen deine Erlaubnis

Meteoprog und unser Service Anbieter werden persönliche Daten aufbewahren, so wie Cookies, Geräte Bezeichnung oder ähnliche Technologien von deinem Gerät und Prozess, so wie Persönliche Daten Inhalte und Werbungen, genauso wie social Media und den Verkehr zu analysieren.

  • Aufbewahrung und/oder Zugang zu deiner Geräte Informationen.

    Cookies, Geräte Bezeichnung oder andere Informationen, können aufbewahrt oder Zugang zu deinem Gerät erhalten, für den Grund, der oben angegeben wird.

  • Personalisierte Werbung und Inhalte, Messungen, Einblick in das Publikum und Produkt Entwicklung.

    Werbungen und Inhalte können personalisiert werden, basierend auf ein Profil. Mehr Daten können besser personalisierte Werbungen und Inhalte hinzufügen. Werbung und Inhalte können gezeigt und gemessen werden. Einblicke über das Publikum, welche die Werbung gesehen haben und den Inhalt, können abgeleitet werden. So wie Daten können genutzt werden, um es zu verbessern oder die Benutzer Erfahrung zu verbessern das System und die Software.

Wenn du “Ich stimme zu” klickst, erlaubst du uns, die Cookies zu benutzen die Geräte Bezeichnung, den Web oder ähnliche Technologien zu benutzen. Deine Settings, können in deinem Gerät bei deinem Browser geändert werden.

Für den bestimmten Zweck, berechtigten Interessen beruhen darauf, mehr als auf den Inhalt. Du kannst mehr darüber in unseren Privaten und Cookie Politik lesen.